Location: Ajisawe
(8.4333°N, 4.3833°E)
Time: 13:23:13
(UTC+00:00)

Courier 1B Rocket - Pass Details

Date: 29 April 2021
Orbit: 920 x 1202 km, 28.2° (Epoch: 07 May)

Event Time Altitude Azimuth Distance (km) Brightness Sun altitude
Rises 17:17:24 0° 309° (NW) 3,543 9.3 7.5°
Reaches altitude 10° 17:22:15 10° 343° (NNW) 2,619 7.8 6.3°
Maximum altitude 17:24:10 11° 1° (N) 2,533 7.4 5.9°
Drops below altitude 10° 17:26:07 10° 19° (NNE) 2,650 7.3 5.4°
Sets 17:31:08 0° 52° (NE) 3,654 7.6 4.2°
